Location: Gradaro
(45.0833°N, 10.8833°E)
Time: 21:53:35
(UTC+00:00)

ATLAS 3B R/B - Pass Details

Date: 29 November 2020
Orbit: 1013 x 1182 km, 63.8° (Epoch: 08 January)

Event Time Altitude Azimuth Distance (km) Brightness Sun altitude
Exits shadow 05:17:52 13° 312° (NW) 2,685 4.2 -12.9°
Maximum altitude 05:23:48 50° 242° (WSW) 1,386 3.0 -11.9°
Drops below altitude 10° 05:30:42 10° 169° (S) 3,030 5.5 -10.7°
Sets 05:33:31 0° 164° (SSE) 4,007 6.3 -10.3°
